Weather History for Nebraska City, NE

Change the Weather History Date:

Wednesday, November 2, 2011

  Actual Average (KSDA) Record (KSDA)
Temperature  
Mean Temperature 42 °F -  
Max Temperature 51 °F 54 °F 82 °F (2005)
Min Temperature 33 °F 36 °F 12 °F (1991)
Degree Days  
Heating Degree Days 23    
Moisture  
Dew Point 37 °F    
Average Humidity 85    
Maximum Humidity 100    
Minimum Humidity 54    
Precipitation  
Precipitation 0.57 in - - ()
Sea Level Pressure  
Sea Level Pressure 30.09 in    
Wind  
Wind Speed 17 mph (NNE)    
Max Wind Speed 29 mph    
Max Gust Speed 43 mph    
Visibility 8 miles    
Events Rain , Snow , Thunderstorm    
Averages and records for this station are not official NWS values.
T = Trace of Precipitation, MM = Missing Value Source: NWS Daily Summary

Daily Weather History Graph

Daily Weather History Graph

Search for Another Location

Airport:

Trip Planner

Search our weather history database for the weather conditions in past years. The results will help you decide how hot, cold, wet, or windy it might be!

Date:

Astronomy

Nov. 02, 2011 Rise Set
Actual Time 7:54 AM CDT 6:18 PM CDT
Civil Twilight 7:26 AM CDT 6:47 PM CDT
Nautical Twilight 6:53 AM CDT 7:19 PM CDT
Astronomical Twilight 6:21 AM CDT 7:51 PM CDT
Moon 2:14 PM CDT (11/2) 12:03 AM CDT (11/2)
Length of Visible Light 11h 21m
Length of Day
10h 24m
Waxing Crescent, 50% of the Moon is Illuminated
Nov 2
Waxing Crescent
Nov 10
Full
Nov 18
Last Quarter
Nov 25
New
Dec 2
First Quarter

Hourly Weather History & Observations

Time (CDT) Temp. Windchill Dew Point Humidity Pressure Visibility Wind Dir Wind Speed Gust Speed Precip Events Conditions
12:15 AM 51.8 °F - 39.2 °F 62% 29.94 in 10.0 mi North 11.5 mph - N/A   Mostly Cloudy
12:35 AM 51.8 °F - 37.4 °F 58% 29.95 in 10.0 mi North 11.5 mph - N/A   Overcast
12:55 AM 51.8 °F - 35.6 °F 54% 29.96 in 10.0 mi North 12.7 mph - N/A   Overcast
1:15 AM 51.8 °F - 35.6 °F 54% 29.96 in 10.0 mi NNE 16.1 mph 21.9 mph N/A   Overcast
1:35 AM 51.8 °F - 35.6 °F 54% 29.96 in 10.0 mi NNE 16.1 mph 24.2 mph N/A   Overcast
1:55 AM 50.0 °F - 35.6 °F 58% 29.97 in 10.0 mi NNE 17.3 mph 21.9 mph N/A   Overcast
2:15 AM 50.0 °F - 37.4 °F 62% 29.98 in 10.0 mi North 17.3 mph 25.3 mph N/A   Overcast
2:35 AM 50.0 °F - 37.4 °F 62% 29.98 in 10.0 mi NNE 18.4 mph 26.5 mph N/A   Overcast
2:55 AM 50.0 °F - 37.4 °F 62% 29.98 in 10.0 mi NNE 19.6 mph - N/A   Overcast
3:15 AM 50.0 °F - 37.4 °F 62% 29.99 in 10.0 mi NNE 16.1 mph 25.3 mph N/A   Overcast
3:35 AM 48.2 °F - 35.6 °F 62% 29.99 in 10.0 mi NNE 17.3 mph 27.6 mph N/A   Overcast
3:55 AM 48.2 °F - 35.6 °F 62% 30.00 in 10.0 mi NNE 18.4 mph - N/A   Overcast
4:55 AM 48.2 °F - 35.6 °F 62% 29.98 in 10.0 mi NNE 19.6 mph 23.0 mph N/A   Overcast
5:55 AM 44.6 °F 38.8 °F 39.2 °F 81% 30.07 in 2.0 mi NW 11.5 mph - 0.06 in Rain , Thunderstorm Light Thunderstorms and Rain
6:15 AM 44.6 °F 36.9 °F 41.0 °F 87% 30.00 in 3.0 mi NE 18.4 mph 24.2 mph 0.11 in Rain , Thunderstorm Thunderstorms and Rain
6:35 AM 44.6 °F 39.7 °F 41.0 °F 87% 30.05 in 7.0 mi North 9.2 mph - 0.17 in Rain , Thunderstorm Light Thunderstorms and Rain
6:55 AM 42.8 °F 36.2 °F 41.0 °F 93% 30.04 in 10.0 mi NNE 12.7 mph - 0.19 in Rain , Thunderstorm Light Thunderstorms and Rain
7:35 AM 44.6 °F 36.6 °F 39.2 °F 81% 30.06 in 10.0 mi North 19.6 mph 24.2 mph N/A   Overcast
7:55 AM 44.6 °F 37.2 °F 37.4 °F 76% 30.08 in 10.0 mi North 17.3 mph 24.2 mph N/A   Overcast
8:15 AM 42.8 °F 36.2 °F 37.4 °F 81% 30.10 in 10.0 mi North 12.7 mph - N/A   Light Drizzle
8:35 AM 42.8 °F 34.8 °F 37.4 °F 81% 30.08 in - NNE 17.3 mph 25.3 mph N/A   Light Drizzle
8:55 AM 44.6 °F 36.4 °F 37.4 °F 76% 30.08 in - NNE 20.7 mph 29.9 mph 0.03 in   Overcast
9:35 AM 42.8 °F 32.9 °F 35.6 °F 76% 30.07 in 10.0 mi NNE 26.5 mph 36.8 mph N/A   Overcast
9:55 AM 42.8 °F 33.3 °F 35.6 °F 76% 30.07 in 10.0 mi NNE 24.2 mph 33.4 mph N/A   Overcast
10:15 AM 42.8 °F 33.1 °F 35.6 °F 76% 30.09 in 10.0 mi NNE 25.3 mph 31.1 mph N/A   Overcast
10:35 AM 41.0 °F 30.0 °F 37.4 °F 87% 30.04 in 3.0 mi NNE 28.8 mph 39.1 mph 0.02 in Rain , Thunderstorm Light Thunderstorms and Rain
10:55 AM 41.0 °F 31.6 °F 37.4 °F 87% 30.10 in 7.0 mi NNE 20.7 mph 31.1 mph 0.02 in Rain Rain
11:15 AM 41.0 °F 31.4 °F 37.4 °F 87% 30.08 in 2.5 mi North 21.9 mph 28.8 mph 0.03 in Rain , Thunderstorm Light Thunderstorms and Rain
11:35 AM 41.0 °F 30.9 °F 37.4 °F 87% 30.08 in 10.0 mi North 24.2 mph 33.4 mph 0.03 in Rain Rain
11:55 AM 37.4 °F 25.2 °F 37.4 °F 100% 30.08 in 10.0 mi NNE 28.8 mph 38.0 mph 0.03 in   Overcast
12:15 PM 37.4 °F 25.4 °F 35.6 °F 93% 30.08 in 10.0 mi North 27.6 mph 42.6 mph N/A Thunderstorm Overcast
12:35 PM 37.4 °F 26.4 °F 35.6 °F 93% 30.13 in 10.0 mi North 23.0 mph 35.7 mph N/A Thunderstorm Overcast
12:55 PM 37.4 °F 25.9 °F 35.6 °F 93% 30.16 in 10.0 mi NNE 25.3 mph 32.2 mph N/A Rain Light Rain
1:15 PM 35.6 °F 23.4 °F 35.6 °F 100% 30.16 in 2.0 mi North 25.3 mph 39.1 mph 0.05 in Rain Light Rain
1:35 PM 35.6 °F 25.2 °F 35.6 °F 100% 30.14 in 3.0 mi North 18.4 mph 26.5 mph 0.07 in Rain Rain
1:55 PM 35.6 °F 24.8 °F 35.6 °F 100% 30.13 in 1.8 mi North 19.6 mph 28.8 mph 0.14 in Rain Rain
2:15 PM 33.8 °F 22.5 °F 33.8 °F 100% 30.12 in 2.5 mi NNE 19.6 mph 28.8 mph 0.04 in Rain Light Rain
2:35 PM 33.8 °F 22.8 °F 33.8 °F 100% 30.14 in 1.8 mi NNE 18.4 mph 29.9 mph 0.06 in Snow Light Snow
2:55 PM 33.8 °F 23.5 °F 33.8 °F 100% 30.14 in 5.0 mi North 16.1 mph - 0.06 in Rain Light Rain
3:15 PM 33.8 °F 23.5 °F 33.8 °F 100% 30.14 in 5.0 mi North 16.1 mph - N/A Rain Light Rain
3:35 PM 33.8 °F 22.5 °F 33.8 °F 100% 30.13 in 7.0 mi North 19.6 mph 26.5 mph N/A Rain Light Rain
3:55 PM 35.6 °F 23.7 °F 35.6 °F 100% 30.14 in 7.0 mi NNE 24.2 mph 32.2 mph N/A Rain Light Rain
4:15 PM 35.6 °F 24.0 °F 35.6 °F 100% 30.16 in 10.0 mi NNE 23.0 mph 33.4 mph N/A   Drizzle
4:35 PM 35.6 °F 24.8 °F 35.6 °F 100% 30.15 in 7.0 mi NNE 19.6 mph 25.3 mph 0.01 in   Drizzle
4:55 PM 35.6 °F 26.2 °F 35.6 °F 100% 30.17 in 5.0 mi North 15.0 mph 29.9 mph 0.02 in Rain Light Rain
5:15 PM 35.6 °F 25.5 °F 35.6 °F 100% 30.18 in 10.0 mi North 17.3 mph 23.0 mph N/A   Light Drizzle
5:35 PM 35.6 °F 25.5 °F 35.6 °F 100% 30.18 in 7.0 mi North 17.3 mph 23.0 mph N/A   Drizzle
5:55 PM 35.6 °F 26.2 °F 35.6 °F 100% 30.18 in 4.0 mi North 15.0 mph - 0.02 in Rain Light Rain
6:15 PM 35.6 °F 26.2 °F 35.6 °F 100% 30.17 in 10.0 mi North 15.0 mph 20.7 mph N/A Rain Light Rain
6:35 PM 37.4 °F 28.5 °F 37.4 °F 100% 30.17 in 10.0 mi North 15.0 mph 23.0 mph N/A Rain Light Rain
6:55 PM 37.4 °F 26.6 °F 37.4 °F 100% 30.16 in 10.0 mi North 21.9 mph 28.8 mph N/A   Overcast
7:15 PM 39.2 °F 29.0 °F 37.4 °F 93% 30.18 in 10.0 mi North 21.9 mph 29.9 mph N/A   Light Drizzle
7:35 PM 39.2 °F 30.8 °F 37.4 °F 93% 30.19 in 10.0 mi North 15.0 mph 21.9 mph N/A   Light Drizzle
7:55 PM 39.2 °F 32.5 °F 37.4 °F 93% 30.19 in 10.0 mi North 10.4 mph 17.3 mph N/A   Overcast
8:15 PM 39.2 °F 31.6 °F 37.4 °F 93% 30.19 in 10.0 mi North 12.7 mph 20.7 mph N/A   Overcast
8:35 PM 39.2 °F 33.0 °F 37.4 °F 93% 30.19 in 10.0 mi North 9.2 mph - N/A   Light Drizzle
9:15 PM 39.2 °F 31.2 °F 37.4 °F 93% 30.17 in 10.0 mi North 13.8 mph - N/A   Overcast
9:35 PM 41.0 °F 33.1 °F 35.6 °F 81% 30.19 in 10.0 mi North 15.0 mph - N/A   Overcast
9:55 PM 41.0 °F 32.8 °F 33.8 °F 76% 30.20 in 10.0 mi North 16.1 mph 23.0 mph N/A   Overcast
10:15 PM 41.0 °F 32.8 °F 33.8 °F 76% 30.19 in 10.0 mi North 16.1 mph 21.9 mph N/A   Overcast
10:35 PM 41.0 °F 32.8 °F 33.8 °F 76% 30.19 in 10.0 mi North 16.1 mph 20.7 mph N/A   Overcast
10:55 PM 41.0 °F 32.8 °F 32.0 °F 70% 30.19 in 10.0 mi North 16.1 mph 23.0 mph N/A   Overcast
11:15 PM 41.0 °F 32.8 °F 32.0 °F 70% 30.19 in 10.0 mi North 16.1 mph - N/A   Overcast
11:35 PM 41.0 °F 33.1 °F 32.0 °F 70% 30.19 in 10.0 mi North 15.0 mph 26.5 mph N/A   Overcast
11:55 PM 41.0 °F 33.1 °F 32.0 °F 70% 30.19 in 10.0 mi North 15.0 mph 20.7 mph N/A   Overcast